Location: Berlin
(52.5170°N, 13.3889°E)
Time: 22:25:59
(UTC+02:00)

LES 1 - Pass Details

Date: 23 June 2025
Orbit: 2779 x 2808 km, 32.1° (Epoch: 12 July)

Event Time Altitude Azimuth Distance (km) Brightness Sun altitude
Rises 00:11:24 0° 244° (WSW) 6,570 12.2 -13.0°
Reaches altitude 10° 00:16:05 10° 236° (SW) 5,551 11.7 -13.2°
Maximum altitude 00:29:33 35° 178° (S) 3,870 10.5 -13.6°
Drops below altitude 10° 00:43:03 10° 119° (ESE) 5,563 11.6 -13.8°
Sets 00:47:45 0° 111° (ESE) 6,586 12.0 -13.9°
